Location: Newark
(36.0797°N, 3.9744°E)
Time: 00:43:20
(UTC+00:00)

Transit 4A - All Passes

Search period start: 10 December 2019 00:00
Search period end: 20 December 2019 00:00
Orbit: 870 x 975 km, 66.8° (Epoch: 09 December)

Date Brightness Start Highest point End Pass type
(mag) Time Alt. Az. Time Alt. Az. Time Alt. Az.
10 Dec - 01:32:37 10° NNW 01:38:17 49° ENE 01:43:52 10° SE night (unlit)
10 Dec - 03:19:53 10° WNW 03:24:10 22° WSW 03:28:28 10° SSW night (unlit)
10 Dec - 14:52:59 10° SE 14:56:31 16° ESE 15:00:00 10° ENE daylight
10 Dec - 16:36:00 10° SSW 16:42:13 72° WNW 16:48:18 10° NNE daylight
10 Dec - 18:27:08 10° WNW 18:29:37 12° NW 18:32:04 10° NNW visible
10 Dec - 23:58:05 10° NNE 00:00:18 12° NE 00:02:30 10° ENE night (unlit)
11 Dec - 01:41:48 10° NNW 01:47:40 75° ENE 01:53:27 10° SSE night (unlit)
11 Dec - 03:30:38 10° WNW 03:33:14 13° WSW 03:35:50 10° SW night (unlit)
11 Dec - 15:00:40 10° SSE 15:05:36 25° ESE 15:10:27 10° NE daylight
11 Dec - 16:45:39 10° SW 16:51:37 48° WNW 16:57:29 10° NNE visible
12 Dec - 00:06:12 10° N 00:10:03 18° NE 00:13:51 10° E night (unlit)
12 Dec - 01:51:09 10° NNW 01:56:58 72° WSW 02:02:44 10° SSE night (unlit)
12 Dec - 15:09:03 10° S 15:14:45 38° ESE 15:20:20 10° NE daylight
12 Dec - 16:55:37 10° WSW 17:01:06 32° NW 17:06:31 10° N visible
13 Dec - 00:14:54 10° N 00:19:42 26° NE 00:24:26 10° ESE night (unlit)
13 Dec - 02:00:41 10° NW 02:06:12 46° WSW 02:11:42 10° S night (unlit)
13 Dec - 15:17:52 10° S 15:23:58 59° ESE 15:29:57 10° NE daylight
13 Dec - 17:05:56 10° W 17:10:41 23° NW 17:15:22 10° N visible
14 Dec - 00:23:49 10° NNW 00:29:13 37° NE 00:34:34 10° ESE night (unlit)
14 Dec - 02:10:26 10° NW 02:15:21 29° WSW 02:20:16 10° SSW night (unlit)
14 Dec - 13:46:04 10° ESE 13:47:45 11° ESE 13:49:26 10° E daylight
14 Dec - 15:27:01 10° SSW 15:33:16 89° ESE 15:39:22 10° NNE daylight
14 Dec - 17:16:47 10° W 17:20:22 16° NW 17:23:56 10° N visible
15 Dec - 00:32:55 10° NNW 00:38:40 57° ENE 00:44:21 10° SE night (unlit)
15 Dec - 02:20:37 10° WNW 02:24:27 18° WSW 02:28:16 10° SW night (unlit)
15 Dec - 13:52:40 10° SSE 13:56:48 19° ESE 14:00:52 10° ENE daylight
15 Dec - 15:36:28 10° SW 15:42:37 62° WNW 15:48:38 10° NNE daylight
15 Dec - 17:28:50 10° NW 17:30:09 11° NW 17:31:29 10° NNW visible
15 Dec - 22:57:54 10° NNE 23:00:50 14° NE 23:03:44 10° ENE night (unlit)
16 Dec - 00:42:10 10° NNW 00:48:01 87° ENE 00:53:50 10° SSE night (unlit)
16 Dec - 02:32:14 10° W 02:33:29 11° WSW 02:34:43 10° WSW night (unlit)
16 Dec - 14:00:40 10° SSE 14:05:54 29° ESE 14:11:03 10° NE daylight
16 Dec - 15:46:14 10° SW 15:52:03 41° WNW 15:57:45 10° NNE daylight
16 Dec - 23:06:18 10° N 23:10:32 20° NE 23:14:43 10° E night (unlit)
17 Dec - 00:51:34 10° NW 00:57:18 61° WSW 01:03:00 10° SSE night (unlit)
17 Dec - 14:09:12 10° S 14:15:05 45° ESE 14:20:49 10° NE daylight
17 Dec - 15:56:19 10° WSW 16:01:34 28° NW 16:06:43 10° N daylight
17 Dec - 23:15:05 10° N 23:20:08 29° NE 23:25:07 10° ESE night (unlit)
18 Dec - 01:01:09 10° NW 01:06:30 39° WSW 01:11:50 10° S night (unlit)
18 Dec - 14:18:09 10° SSW 14:24:19 69° ESE 14:30:21 10° NNE daylight
18 Dec - 16:06:48 10° W 16:11:11 20° NW 16:15:29 10° N daylight
18 Dec - 23:24:05 10° NNW 23:29:38 43° ENE 23:35:08 10° SE night (unlit)
19 Dec - 01:11:03 10° NW 01:15:38 25° WSW 01:20:14 10° SSW night (unlit)
19 Dec - 12:45:08 10° SE 12:48:01 14° ESE 12:50:52 10° ENE daylight
19 Dec - 14:27:24 10° SSW 14:33:38 80° WNW 14:39:43 10° NNE daylight
19 Dec - 16:17:55 10° WNW 16:20:53 14° NW 16:23:50 10° NNW daylight
19 Dec - 21:50:12 10° NNE 21:51:34 11° NE 21:52:55 10° NE night (unlit)
19 Dec - 23:33:14 10° NNW 23:39:02 66° ENE 23:44:48 10° SE night (unlit)
